User: anonymous
Location: Caltech
(34.1382°N, 118.1253°W)
Time: 17:39:46
(UTC-07:00)
Language:

Cosmos 1975 - Orbit

View from above orbital plane
View from above orbital plane
View from above satellite
View from above satellite

Ground track
Ground track

The orbit data is extracted from the following two-line orbital elements,

1 19573U 88093A   14109.47155957  .00005818  00000-0  46346-3 0  1676
2 19573 082.5247 020.1035 0014042 261.3276 098.6357 15.00125216386394
Epoch (UTC): 19 April 2014 11:19:02
Eccentricity: 0.0014042
inclination: 82.5247°
perigee height: 557 km
apogee height: 576 km
right ascension of ascending node: 20.1035°
argument of perigee: 261.3276°
revolutions per day: 15.00125216
mean anomaly at epoch: 98.6357°
orbit number at epoch: 38639

The dashed part of the orbit path shows where the satellite is in the earth's shadow,  

DLR